Location: Haamse
(58.3742°N, 22.4508°E)
Time: 22:31:20
(UTC+00:00)

Daily predictions for brighter satellites

Satellite Brightness Start Highest point End
(mag) Time Altitude Azimuth Time Altitude Azimuth Time Altitude Azimuth
NOSS 3-3 (A) 4.5 15:51:38 10° WNW 15:58:31 68° NNE 16:06:20 10° ESE
Lacrosse 5 2.0 15:54:32 10° W 15:59:37 76° S 16:04:41 10° ESE
Cosmos 1953 3.0 15:57:35 10° SSE 16:01:18 35° E 16:05:02 10° NNE
Cosmos 371 Rocket 3.3 15:56:57 10° SSW 16:01:46 79° ESE 16:06:36 10° NNE
Cosmos 1777 Rocket 4.2 15:57:40 10° NNW 16:02:47 50° NE 16:07:52 10° SE
CSL-04 Debris 4.3 15:57:35 10° SE 16:02:55 58° ENE 16:08:19 10° NNW
Cosmos 304 Rocket 4.1 15:58:38 10° S 16:03:12 45° ESE 16:07:47 10° NE
Cosmos 1758 3.3 16:03:51 10° S 16:07:45 60° E 16:11:42 10° NNE
Cosmos 1607 4.0 16:02:45 10° SW 16:08:54 77° SE 16:15:05 10° NE
FengYun 1-2 T 4.3 16:04:16 10° SSE 16:09:53 74° ENE 16:15:30 10° NNW
SKYMED 2 4.3 16:06:19 10° NNE 16:10:16 32° E 16:14:11 10° SSE
Cosmos 1461 2.9 16:06:42 10° NW 16:10:40 60° NNE 16:14:45 10° ESE
Cosmos 1766 4.4 16:09:06 10° SW 16:12:51 47° WNW 16:16:38 10° N
Cosmos 2084 Rocket 3.8 16:09:27 10° WNW 16:13:52 57° NNE 16:18:14 10° E
COBE Rocket 4.3 16:09:31 10° NNE 16:14:35 48° E 16:19:32 10° S
Cosmos 1844 Rocket 3.2 16:11:31 10° S 16:16:40 37° ESE 16:21:48 10° NE
GP-B 4.2 16:13:59 10° N 16:18:19 51° W 16:22:37 10° SSW
SMAP 4.5 16:15:37 10° S 16:20:04 44° W 16:24:33 10° NNW
H-2A R/B 3.3 16:17:16 10° E 16:21:27 24° NE 16:25:41 10° N
YAOGAN 1 2.5 16:17:18 10° SSE 16:21:36 66° ENE 16:25:56 10° NNW
Cosmos 1184 Rocket 4.2 16:19:16 10° SW 16:22:27 43° WNW 16:25:40 10° N
CZ-4B R/B 4.3 16:23:46 10° NNW 16:25:22 13° NW 16:26:58 10° W
Lacrosse 5 rocket 3.7 16:22:44 10° W 16:25:26 19° SW 16:28:14 10° S
HJ-1C 4.4 16:23:14 10° ESE 16:26:08 27° ENE 16:29:03 10° N
YAOGAN 6 2.5 16:22:48 10° SSE 16:26:28 80° ENE 16:30:08 10° NNW
CZ-4C R/B 4.5 16:22:05 10° WNW 16:28:22 37° SW 16:35:29 10° S
Cosmos 1939 Rocket 3.2 16:25:37 10° SE 16:29:25 44° ENE 16:33:19 10° N
Cosmos 1726 Rocket 3.7 16:30:33 10° S 16:34:48 52° E 16:39:04 10° NNE
GEOS 3 Rocket 4.4 16:30:00 10° ENE 16:34:49 42° N 16:39:41 10° WNW
Cosmos 1908 4.3 16:31:50 10° SE 16:35:01 24° E 16:38:12 10° NE
Cosmos 2278 Rocket 3.5 16:32:09 10° SE 16:35:45 17° E 16:39:21 10° ENE
ATLAS CENTAUR R/B 2.6 16:31:11 10° WNW 16:35:45 39° N 16:39:50 11° ENE
Cosmos 1328 3.7 16:33:27 10° N 16:37:28 73° ENE 16:41:27 10° SSE
Cosmos 1844 4.1 16:33:50 10° S 16:39:12 43° ESE 16:44:39 10° NE
Cosmos 1470 3.1 16:36:59 10° SSW 16:40:57 72° WNW 16:44:58 10° N
SL-27 R/B 4.5 16:41:54 10° N 16:43:28 13° NE 16:44:19 12° NE
CZ-2C R/B 4.4 16:39:51 14° E 16:43:37 26° NE 16:48:15 10° N
Cosmos 1898 Rocket 4.3 16:39:30 10° NNW 16:44:18 34° NE 16:47:52 16° E
ATLAS 5 CENTAUR R/B 2.0 16:40:09 10° SSW 16:44:23 47° SE 16:48:45 12° ENE
Cosmos 2228 3.0 16:40:06 10° S 16:44:26 65° E 16:48:46 10° NNE
Cosmos 1821 Rocket 4.4 16:39:19 10° NNW 16:45:23 66° W 16:51:26 10° S
Cosmos 1818 4.3 16:40:15 10° W 16:45:36 51° NNW 16:50:51 10° ENE
Cosmos 1605 Rocket 4.0 16:39:20 10° N 16:45:37 69° ENE 16:51:45 10° SSE
Okean-O 4.4 16:41:46 10° SSW 16:45:51 36° W 16:50:00 10° NNW
Cosmos 2058 Rocket 3.3 16:43:05 10° SSE 16:47:15 47° E 16:51:28 10° NNE
Envisat 3.8 16:43:06 10° S 16:48:05 55° W 16:53:07 10° NNW
ADEOS Rocket 4.5 16:42:18 10° NNE 16:48:14 23° E 16:53:58 10° SE
CZ-4 R/B 2.1 16:46:08 10° S 16:50:17 61° WSW 16:54:31 10° NNW
Cosmos 921 Rocket 3.3 16:50:57 10° S 16:55:15 46° ESE 16:59:32 10° NE
SL-24 R/B - RUBIN 2 4.2 16:52:34 10° WSW 16:57:43 75° NNW 17:03:24 11° NE
USA 186 2.8 16:58:13 21° NE 16:58:13 21° NE 16:59:51 10° NNE
Cosmos 1934 Rocket 4.2 16:52:06 10° NNW 16:58:25 78° W 17:04:46 10° S
Cosmos 2151 4.3 16:55:14 10° N 16:58:36 21° ENE 16:59:33 20° ENE
COSMO-SKYMED 1 2.5 16:54:13 10° NNE 16:58:37 77° ESE 17:02:57 10° SSW
Cosmos 1727 Rocket 4.4 16:54:51 10° SSE 17:00:25 37° E 17:06:01 10° NNE
Nadezhda 3 Rocket 4.1 16:54:41 10° SSW 17:01:01 82° WNW 17:07:26 10° NNE
CSL-04 Rocket 4.2 16:56:15 10° S 17:01:46 65° WSW 17:07:15 10° NNW
Cosmos 2084 4.1 16:57:57 10° SSW 17:02:08 39° SE 17:04:31 22° ENE
Cosmos 2263 Rocket 3.0 16:56:56 10° WSW 17:02:27 51° NW 17:07:58 10° NE
ASTEX 1 3.4 16:57:50 10° N 17:02:48 87° W 17:07:46 10° S
FREGAT/IRIS 3.0 17:02:28 32° E 17:03:05 36° ENE 17:05:44 10° N
USA 116 3.2 17:01:04 10° NNE 17:04:09 53° ESE 17:07:16 10° S
Cosmos 1356 3.6 17:01:15 10° S 17:04:35 48° E 17:07:56 10° NNE
FALCON 9 DEB 4.4 17:01:45 10° WSW 17:04:53 32° S 17:06:38 20° SE
Cosmos 2173 Rocket 4.3 17:00:39 10° N 17:06:44 46° ENE 17:12:17 12° SE
NOAA 11 4.2 17:01:30 10° SSE 17:06:58 88° WSW 17:12:28 10° NNW
SJ-11-01 4.4 17:03:20 10° SE 17:07:50 53° ENE 17:12:24 10° N
Resurs 01 Rocket 2.9 17:07:50 21° ENE 17:08:52 23° NE 17:12:24 10° N
SJ 16-02 2.4 17:05:08 10° NNW 17:09:00 29° NE 17:10:27 24° ENE
Unknown 4.4 17:06:24 10° WSW 17:09:36 33° S 17:11:10 22° SE
Cosmos 1892 4.0 17:08:06 10° N 17:11:12 23° ENE 17:11:14 22° ENE
Cosmos 1833 Rocket 2.8 17:06:37 10° NW 17:12:16 81° SW 17:17:53 10° SSE
Okean 3 Rocket 4.4 17:09:12 10° N 17:13:20 32° ENE 17:14:47 26° E
Unknown 4.5 17:10:39 10° WSW 17:13:39 29° SSW 17:15:06 21° SSE
Cosmos 2058 3.3 17:12:36 10° N 17:16:41 43° ENE 17:18:33 27° ESE
CZ-2D R/B 3.6 17:12:51 10° S 17:16:41 68° WSW 17:20:35 10° NNW
MONITOR-E 3.7 17:16:30 31° SSE 17:17:40 73° ENE 17:20:29 10° NNW
ARGOS 3.5 17:15:35 20° ESE 17:18:58 46° ENE 17:24:09 10° N
Cosmos 1766 Rocket 4.4 17:16:26 10° N 17:20:15 29° ENE 17:20:49 28° ENE
Cosmos 1825 4.3 17:18:48 10° NNE 17:20:02 13° NE 17:20:02 13° NE
Cosmos 1726 1.9 17:17:52 10° S 17:21:32 84° ESE 17:25:13 10° NNE
Unknown 4.4 17:20:50 10° SW 17:24:32 34° SSE 17:25:34 30° SE
SWAS 4.4 17:21:19 10° SSW 17:25:32 60° ESE 17:28:23 20° NE
Cosmos 1242 Rocket 4.4 17:22:24 10° NNW 17:25:46 33° W 17:29:06 10° SSW
Cosmos 2100 Rocket 4.0 17:19:47 10° N 17:25:59 61° ENE 17:31:39 12° SSE
EO 1 Delta rocket 4.5 17:22:13 10° S 17:26:46 59° W 17:31:47 10° NNW
Cosmos 1703 4.5 17:24:19 10° NNW 17:28:06 44° W 17:31:51 10° SSW
Cosmos 2227 Rocket 4.0 17:24:41 10° WNW 17:29:13 23° N 17:33:42 10° NE
Resurs 1-3 4.2 17:29:33 33° E 17:30:26 37° ENE 17:34:30 10° N
Ariane Rocket 3.3 17:25:29 10° S 17:30:34 69° WSW 17:35:42 10° NNW
Unknown 4.5 17:27:29 10° SW 17:31:14 33° SSE 17:31:59 31° SE
SL-08 RB Rocket 4.3 17:30:35 33° E 17:31:40 38° ENE 17:35:54 10° N
Cosmos 2082 Rocket 2.3 17:26:16 10° NW 17:32:02 82° SW 17:36:25 18° SSE
Unknown 4.5 17:29:36 10° WSW 17:32:42 29° SSW 17:33:32 26° SSE
Starlink (trailer) 4.5 17:29:08 10° SW 17:32:53 34° SSE 17:33:35 32° SE
Unknown 4.4 17:30:46 10° SW 17:34:32 34° SSE 17:35:10 32° SE
Cosmos 2297 Rocket 4.0 17:30:38 10° NW 17:35:06 23° N 17:39:15 11° NE
Unknown 4.4 17:32:21 10° SW 17:36:08 34° SSE 17:36:43 33° SSE
Cosmos 1953 4.0 17:33:57 10° SW 17:37:44 36° WNW 17:41:32 10° N
Cosmos 1153 Rocket 4.5 17:32:34 10° NNW 17:38:46 84° W 17:44:54 10° S
SJ-6B 2.6 17:38:40 42° SE 17:39:48 67° ENE 17:43:34 10° NNW
Cosmos 1992 Rocket 4.3 17:35:05 10° SW 17:40:19 70° NW 17:45:34 10° NNE
SPOT 3 Rocket 3.5 17:38:33 21° SSE 17:42:01 73° ENE 17:47:15 10° NNW
Lacrosse 5 2.6 17:37:29 10° W 17:42:19 45° SSW 17:44:44 26° SSE
Unknown 4.4 17:38:50 10° SW 17:42:38 35° SSE 17:43:00 35° SSE
Unknown 4.4 17:39:00 10° SW 17:42:47 35° SSE 17:43:09 35° SSE
Unknown 4.4 17:39:42 10° SW 17:43:30 35° SSE 17:43:50 35° SSE
Cosmos 1937 Rocket 3.6 17:39:22 10° NNW 17:44:28 54° NE 17:46:02 39° ESE
Unknown 4.2 17:41:15 10° WSW 17:44:42 36° S 17:45:03 35° S
Cosmos 292 Rocket 3.6 17:41:08 10° SSW 17:45:52 72° ESE 17:50:38 10° NNE
Unknown 4.4 17:43:40 10° SW 17:47:29 36° SSE 17:47:40 36° SSE
Cosmos 724 4.4 17:41:26 10° WSW 17:47:33 79° NW 17:52:19 17° NE
Unknown 4.4 17:43:56 10° SW 17:47:44 36° SSE 17:47:56 36° SSE
Cosmos 1812 Rocket 3.5 17:44:46 10° S 17:49:07 59° E 17:53:32 10° NNE
Unknown 4.3 17:45:40 10° WSW 17:49:29 37° S 17:49:38 36° SSE
Cosmos 1461 4.0 17:45:55 10° WNW 17:49:40 38° SW 17:51:48 22° S
Cosmos 489 Rocket 4.3 17:44:04 10° SSW 17:50:15 75° ESE 17:56:29 10° NNE
Cosmos 2016 Rocket 4.0 17:44:09 10° N 17:50:20 60° ENE 17:53:33 29° SE
Cosmos 1932 4.5 17:44:10 10° SW 17:50:32 87° NW 17:55:42 17° NE
Unknown 4.2 17:49:06 10° WSW 17:52:40 37° S 17:52:44 37° S
Unknown 4.3 17:48:56 10° WSW 17:52:47 37° S 17:52:49 37° SSE
Meteor 2-10 4.2 17:47:44 10° SSW 17:52:47 70° WNW 17:57:50 10° NNE
Unknown 4.4 17:49:26 10° WSW 17:53:15 37° S 17:53:16 37° S
Cosmos 2084 Rocket 3.8 17:49:05 10° WNW 17:53:29 60° SW 17:54:51 40° SSE
Cosmos 990 Rocket 3.9 17:48:18 10° NNW 17:53:32 71° ENE 17:55:16 42° SE
Unknown 4.4 17:50:32 10° WSW 17:54:20 37° S 17:54:20 37° S
Unknown 4.2 17:51:48 10° WSW 17:55:25 38° S 17:55:25 38° S
Cosmos 1607 4.5 17:50:29 10° W 17:56:31 54° NNW 18:00:42 20° NE
Unknown 4.4 17:53:42 10° WSW 17:57:23 37° S 17:57:23 37° S
Cosmos 1076 Rocket 3.8 17:54:59 10° NNW 17:59:21 68° W 18:02:16 20° S
H-2A R/B 2.0 17:57:23 29° SSE 18:00:14 83° ENE 18:05:42 10° NNW
Cosmos 1844 Rocket 3.1 17:54:44 10° SW 18:00:22 65° NW 18:06:00 10° NE
In-Cosmos 22 Rocket 4.0 17:55:16 10° NNW 18:00:40 85° ENE 18:03:28 30° SSE
Unknown 4.4 17:57:06 10° WSW 18:00:42 37° S 18:00:42 37° S
Cosmos 2061 Rocket 3.9 17:55:01 10° N 18:01:20 72° ENE 18:04:36 30° SSE
Unknown 4.4 17:58:46 10° WSW 18:02:18 37° S 18:02:18 37° S
Spot 2 Rocket 4.0 18:03:53 40° ENE 18:04:07 41° ENE 18:08:52 10° N
Unknown 4.4 18:00:25 10° WSW 18:03:54 37° S 18:03:54 37° S
Unknown 4.5 18:02:04 10° WSW 18:05:30 37° S 18:05:30 37° S
Cosmos 1908 4.2 18:06:50 10° SSW 18:10:38 49° WNW 18:14:28 10° N
GEOS 3 Rocket 4.0 18:11:05 41° ENE 18:12:23 52° NNE 18:17:24 10° NW
ATLAS CENTAUR R/B 2.2 18:10:58 10° WNW 18:15:32 45° NNE 18:16:01 43° NE
Cosmos 2278 Rocket 2.1 18:13:16 10° SSW 18:18:53 68° ESE 18:22:41 22° NE
SL-27 R/B 3.9 18:16:02 10° NNW 18:17:54 29° N 18:17:54 29° N
Meteor 2-3 Rocket 4.1 18:15:05 10° N 18:20:35 44° ENE 18:20:42 44° ENE
ERS-1 Rocket 4.1 18:22:39 30° NE 18:22:39 30° NE 18:26:25 10° N
MetOp-A 4.0 18:21:15 56° SE 18:22:26 80° ENE 18:27:49 10° NNW
CZ-2C R/B 3.2 18:20:56 45° SSE 18:22:50 83° ENE 18:28:39 10° NNW
Cosmos 1844 4.2 18:17:34 10° SW 18:23:16 59° NW 18:29:02 10° NE
Cosmos 372 Rocket 4.2 18:20:49 10° NNW 18:25:53 50° NE 18:25:53 50° NE
Cosmos 1898 Rocket 3.6 18:21:35 10° NNW 18:26:50 71° WSW 18:28:10 50° S
USA 186 4.2 18:29:56 18° NW 18:29:56 18° NW 18:30:55 10° NW
ATLAS 5 CENTAUR R/B 2.1 18:24:22 10° WSW 18:28:57 65° NNW 18:30:17 46° NE
Cosmos 1818 4.4 18:24:51 10° WNW 18:30:05 43° N 18:31:29 36° NE
Cosmos 1459 Rocket 4.3 18:24:12 10° NNW 18:30:17 65° W 18:35:04 18° S
ADEOS Rocket 3.4 18:27:14 10° NNE 18:35:04 72° ESE 18:42:33 10° S
Cosmos 2151 3.2 18:32:05 10° NNW 18:36:09 70° WNW 18:36:09 70° WNW
Cosmos 2084 3.8 18:37:02 10° WSW 18:41:05 66° WNW 18:41:05 66° WNW
Resurs 01 Rocket 1.9 18:45:24 69° NW 18:45:24 69° NW 18:49:28 10° NNW
Cosmos 1833 4.4 18:39:43 10° NW 18:45:16 54° NE 18:45:17 54° NE
Cosmos 1727 Rocket 4.5 18:39:35 10° SSW 18:45:41 59° WNW 18:51:49 10° N
Cosmos 1802 Rocket 4.4 18:39:34 10° NNW 18:45:56 62° W 18:49:49 24° SSW
Cosmos 1892 3.9 18:43:27 10° NNW 18:46:14 41° NW 18:46:14 41° NW
Cosmos 2263 Rocket 4.0 18:42:57 10° WNW 18:47:39 26° NNW 18:51:41 12° NE
SJ 16-02 1.8 18:43:35 10° NNW 18:47:27 59° WNW 18:47:27 59° WNW
Cosmos 1125 Rocket 4.1 18:45:37 10° NNW 18:50:12 47° NNE 18:50:12 47° NNE
Okean 3 Rocket 4.5 18:47:14 10° NNW 18:51:38 47° W 18:52:11 45° WSW
Terra 3.4 18:55:37 24° NNE 18:55:37 24° NNE 18:58:07 10° N
Cosmos 2150 Rocket 4.1 18:50:39 10° NNW 18:55:48 74° NNE 18:55:48 74° NNE
Cosmos 1825 4.2 18:53:20 10° NNW 18:54:52 23° N 18:54:52 23° N
Cosmos 1766 Rocket 4.4 18:54:10 10° NNW 18:57:59 48° WNW 18:57:59 48° WNW
ARGOS 4.1 18:57:06 30° SSW 18:59:18 45° W 19:04:32 10° NNW
SPOT 5 4.0 19:01:49 39° NNE 19:01:49 39° NNE 19:05:42 10° N
Meteor 2-1 Rocket 4.2 19:00:19 61° SW 19:01:17 77° WNW 19:06:55 10° NNE
SPOT 1/Viking Rocket 4.2 19:04:21 45° NNE 19:04:21 45° NNE 19:08:09 10° NNW
Cosmos 2123 Rocket 3.8 19:05:53 82° E 19:05:53 82° E 19:12:09 10° NNE
Cosmos 1725 Rocket 4.4 19:03:37 10° NNW 19:09:46 61° W 19:11:31 45° SSW
USA 238 DEB 4.5 19:07:17 10° SW 19:11:09 37° SSW 19:11:09 37° SSW
Cosmos 2227 Rocket 3.6 19:10:11 10° NW 19:15:04 28° NNE 19:15:30 28° NNE
Cosmos 2233 Rocket 4.0 19:08:58 10° NNW 19:15:15 78° W 19:15:40 74° SW
Cosmos 2082 Rocket 4.2 19:11:07 10° NW 19:15:23 22° WSW 19:18:18 15° SW
Cosmos 2297 Rocket 3.5 19:15:59 10° NW 19:20:54 29° NNE 19:21:02 29° NNE
Lacrosse 5 4.0 19:21:10 10° W 19:23:56 17° SW 19:23:56 17° SW
H-2A R/B 4.1 19:38:00 18° WSW 19:40:19 24° W 19:44:39 10° NW
Timation 2 Rocket 4.3 19:37:42 10° NW 19:42:34 59° NNW 19:42:34 59° NNW
Cosmos 1844 Rocket 4.5 19:40:25 10° W 19:45:17 28° NNW 19:49:02 15° NNE
Cosmos 1238 Rocket 4.3 19:39:11 10° NNW 19:45:46 63° W 19:45:49 63° W
ATLAS CENTAUR R/B 3.7 19:50:13 10° NW 19:52:13 25° WNW 19:52:13 25° WNW
Cosmos 2219 4.4 19:51:15 10° NW 19:55:18 37° N 19:55:18 37° N
ERS-1 Rocket 4.4 20:02:40 34° NNW 20:02:40 34° NNW 20:05:36 10° NNW
Cosmos 2278 Rocket 3.3 19:57:59 10° WSW 20:03:22 42° NW 20:04:37 37° N
ATLAS 5 CENTAUR R/B 3.7 20:09:27 10° WNW 20:11:49 28° WNW 20:11:49 28° WNW
CZ-2C R/B 4.2 20:11:07 10° NNE 20:13:54 30° N 20:13:54 30° N
Resurs 01 Rocket 4.4 20:22:59 14° WNW 20:22:59 14° WNW 20:24:46 10° NW
SJ 16-02 4.3 20:23:57 10° WNW 20:24:27 11° WNW 20:24:27 11° WNW
Terra 4.1 20:34:30 22° NNW 20:34:30 22° NNW 20:36:14 10° NNW
Cosmos 2263 Rocket 4.0 20:28:49 10° NW 20:33:21 24° N 20:33:21 24° N
Cosmos 2227 Rocket 3.9 20:54:32 10° NW 20:57:18 29° NNW 20:57:18 29° NNW
Cosmos 2297 Rocket 4.0 21:00:16 10° NW 21:02:49 27° NNW 21:02:49 27° NNW
SL-16 R/B 4.4 21:30:42 22° NE 21:30:42 22° NE 21:35:13 10° N
Cosmos 2278 Rocket 4.4 21:44:19 10° WNW 21:50:50 20° NNE 21:53:30 10° NE
Cosmos 2263 Rocket 4.4 22:13:20 10° NW 22:15:01 19° NNW 22:15:01 19° NNW
Cosmos 2344 4.3 22:25:22 52° NE 22:25:22 52° NE 22:32:17 10° ENE
ATLAS 3B R/B 4.4 22:38:35 22° ENE 22:38:35 22° ENE 22:40:49 10° ENE
Cosmos 2369 Rocket 4.3 22:48:03 23° NNE 22:48:03 23° NNE 22:50:35 10° NE
CENTAUR R/B 3.9 22:50:01 40° NE 22:50:01 40° NE 22:55:13 10° ENE
Cosmos 1980 Rocket 4.4 23:13:32 18° ENE 23:13:32 18° ENE 23:15:15 10° NE
SL-16 R/B 3.8 23:15:49 36° N 23:15:49 36° N 23:19:26 10° NNW
Resurs 1-4 Rocket 4.3 23:18:20 10° NNE 23:20:31 20° NE 23:20:31 20° NE
Cosmos 1943 Rocket 4.1 23:29:22 25° N 23:29:22 25° N 23:33:14 10° NE
Cosmos 2278 Rocket 4.1 23:32:48 22° NNW 23:34:48 26° NNE 23:39:35 10° ENE
NOSS 3-2 (C) 4.4 23:46:52 54° NE 23:46:52 54° NE 23:53:18 10° E
CZ-2D R/B 3.9 23:49:18 10° NNE 23:51:59 27° NE 23:51:59 27° NE
ADEOS II 4.3 23:50:52 10° NE 23:54:07 19° ENE 23:54:07 19° ENE
